| time (UTC) | temp F | wind direction | speed MPH | gust MPH | rain 1hr in | rain 24hr in | rain mn in | humidity % | barometer mb |
| 20260902161552 | 85 | 269 | 0.0 | 5.0 | 0.00 | 0.08 | 0.06 | 97 | 1014.1 |
| 20260902160048 | 84 | 105 | 0.0 | 4.0 | 0.00 | 0.08 | 0.06 | 97 | 1014.1 |
| 20260902154545 | 83 | 224 | 0.0 | 4.0 | 0.00 | 0.08 | 0.06 | 97 | 1014.1 |
| 20260902153043 | 82 | 127 | 0.0 | 3.0 | 0.00 | 0.08 | 0.06 | 98 | 1014.0 |
| 20260902151550 | 81 | 261 | 0.0 | 2.0 | 0.00 | 0.08 | 0.06 | 98 | 1013.8 |
| 20260902150040 | 80 | 274 | 0.0 | 2.0 | 0.00 | 0.08 | 0.06 | 98 | 1013.8 |
| 20260902144542 | 80 | 155 | 0.0 | 0.0 | 0.00 | 0.08 | 0.06 | 98 | 1013.8 |
| 20260902143036 | 79 | 155 | 0.0 | 0.0 | 0.00 | 0.08 | 0.06 | 98 | 1013.7 |
| 20260902141538 | 78 | 155 | 0.0 | 0.0 | 0.00 | 0.08 | 0.06 | 98 | 1013.7 |
| 20260902140038 | 77 | 155 | 0.0 | 0.0 | 0.00 | 0.08 | 0.06 | 98 | 1013.6 |
| 20260902134534 | 76 | 155 | 0.0 | 0.0 | 0.00 | 0.08 | 0.06 | 98 | 1013.7 |
| 20260902133033 | 76 | 155 | 0.0 | 0.0 | 0.00 | 0.08 | 0.06 | 97 | 1013.6 |
| 20260902131531 | 76 | 155 | 0.0 | 1.0 | 0.00 | 0.08 | 0.06 | 97 | 1013.3 |
| 20260902130032 | 75 | 150 | 0.0 | 1.0 | 0.00 | 0.08 | 0.06 | 97 | 1013.4 |
| 20260902124528 | 75 | 150 | 0.0 | 0.0 | 0.00 | 0.08 | 0.06 | 97 | 1013.2 |
| 20260902123026 | 74 | 149 | 0.0 | 1.0 | 0.04 | 0.08 | 0.06 | 97 | 1012.9 |
| 20260902121523 | 75 | 158 | 0.0 | 0.0 | 0.06 | 0.08 | 0.06 | 97 | 1012.6 |
| 20260902120020 | 75 | 158 | 0.0 | 0.0 | 0.06 | 0.08 | 0.06 | 96 | 1012.7 |
| 20260902114518 | 76 | 139 | 0.0 | 9.0 | 0.06 | 0.08 | 0.06 | 96 | 1012.5 |
| 20260902113014 | 79 | 139 | 0.0 | 2.0 | 0.01 | 0.03 | 0.01 | 95 | 1012.5 |
| 20260902111516 | 79 | 137 | 0.0 | 0.0 | 0.00 | 0.02 | 0.00 | 95 | 1012.3 |
| 20260902110018 | 79 | 137 | 0.0 | 0.0 | 0.00 | 0.02 | 0.00 | 95 | 1012.3 |
| 20260902104512 | 79 | 137 | 0.0 | 1.0 | 0.00 | 0.02 | 0.00 | 95 | 1012.3 |
| 20260902103010 | 79 | 136 | 0.0 | 1.0 | 0.00 | 0.02 | 0.00 | 95 | 1012.4 |
| 20260902101509 | 79 | 137 | 0.0 | 0.0 | 0.00 | 0.02 | 0.00 | 95 | 1012.2 |
| 20260902100009 | 79 | 137 | 0.0 | 0.0 | 0.00 | 0.02 | 0.00 | 94 | 1012.0 |
| 20260902094506 | 79 | 137 | 0.0 | 0.0 | 0.00 | 0.02 | 0.00 | 94 | 1012.0 |
| 20260902093010 | 79 | 137 | 0.0 | 0.0 | 0.00 | 0.02 | 0.00 | 94 | 1012.0 |
| 20260902091506 | 79 | 120 | 0.0 | 0.0 | 0.00 | 0.02 | 0.00 | 93 | 1012.0 |
| 20260902090005 | 79 | 120 | 0.0 | 0.0 | 0.00 | 0.02 | 0.00 | 93 | 1011.9 |
| 20260902084504 | 80 | 120 | 0.0 | 1.0 | 0.00 | 0.02 | 0.00 | 93 | 1012.0 |
| 20260902083002 | 80 | 120 | 0.0 | 1.0 | 0.00 | 0.02 | 0.00 | 92 | 1012.0 |
| 20260902081503 | 80 | 120 | 0.0 | 1.0 | 0.00 | 0.02 | 0.00 | 92 | 1012.1 |
| 20260902080002 | 80 | 153 | 0.0 | 1.0 | 0.00 | 0.02 | 0.00 | 92 | 1012.2 |
| 20260902074613 | 80 | 179 | 0.0 | 4.0 | 0.00 | 0.02 | 0.00 | 92 | 1012.1 |
| 20260902073059 | 80 | 131 | 0.0 | 2.0 | 0.00 | 0.02 | 0.00 | 93 | 1012.1 |
| 20260902071559 | 80 | 117 | 0.0 | 3.0 | 0.00 | 0.02 | 0.00 | 93 | 1012.2 |
| 20260902070058 | 80 | 129 | 0.0 | 3.0 | 0.00 | 0.02 | 0.00 | 93 | 1012.2 |
| 20260902064558 | 80 | 118 | 0.0 | 1.0 | 0.00 | 0.02 | 0.00 | 93 | 1012.1 |
| 20260902063103 | 79 | 94 | 0.0 | 1.0 | 0.00 | 0.02 | 0.00 | 93 | 1012.2 |
| 20260902061557 | 79 | 96 | 0.0 | 1.0 | 0.00 | 0.02 | 0.00 | 93 | 1012.2 |
| 20260902060057 | 79 | 96 | 0.0 | 1.0 | 0.00 | 0.02 | 0.00 | 93 | 1012.2 |
| 20260902054554 | 79 | 90 | 0.0 | 1.0 | 0.00 | 0.02 | 0.00 | 92 | 1012.0 |
| 20260902053053 | 79 | 94 | 0.0 | 0.0 | 0.00 | 0.02 | 0.00 | 92 | 1012.1 |
| 20260902051554 | 80 | 96 | 0.0 | 1.0 | 0.00 | 0.02 | 0.00 | 91 | 1012.3 |
| 20260902050100 | 80 | 58 | 0.0 | 1.0 | 0.00 | 0.02 | 0.00 | 91 | 1012.2 |
| 20260902044552 | 80 | 4 | 0.0 | 0.0 | 0.00 | 0.02 | 0.02 | 91 | 1012.3 |
| 20260902043050 | 80 | 4 | 0.0 | 1.0 | 0.00 | 0.02 | 0.02 | 90 | 1012.2 |
| 20260902041548 | 80 | 4 | 0.0 | 1.0 | 0.00 | 0.02 | 0.02 | 90 | 1012.2 |
| 20260902040047 | 80 | 316 | 0.0 | 0.0 | 0.00 | 0.02 | 0.02 | 90 | 1012.3 |
| 20260902034547 | 80 | 316 | 0.0 | 0.0 | 0.00 | 0.02 | 0.02 | 90 | 1012.4 |
| 20260902033049 | 80 | 316 | 0.0 | 0.0 | 0.00 | 0.02 | 0.02 | 90 | 1012.4 |
| 20260902031549 | 80 | 316 | 0.0 | 0.0 | 0.00 | 0.02 | 0.02 | 89 | 1012.1 |
| 20260902030045 | 80 | 316 | 0.0 | 0.0 | 0.00 | 0.02 | 0.02 | 89 | 1011.9 |
| 20260902024554 | 80 | 316 | 0.0 | 0.0 | 0.00 | 0.02 | 0.02 | 89 | 1011.6 |
| 20260902023043 | 80 | 316 | 0.0 | 0.0 | 0.00 | 0.02 | 0.02 | 88 | 1011.5 |
| 20260902021551 | 80 | 316 | 0.0 | 0.0 | 0.00 | 0.02 | 0.02 | 88 | 1011.2 |
| 20260902020043 | 80 | 305 | 0.0 | 0.0 | 0.00 | 0.02 | 0.02 | 88 | 1011.2 |
| 20260902014542 | 80 | 305 | 0.0 | 0.0 | 0.00 | 0.02 | 0.02 | 87 | 1011.0 |
| 20260902013043 | 81 | 305 | 0.0 | 0.0 | 0.00 | 0.02 | 0.02 | 87 | 1010.8 |
| 20260902011541 | 81 | 305 | 0.0 | 0.0 | 0.00 | 0.02 | 0.02 | 85 | 1010.6 |
| 20260902010039 | 81 | 305 | 0.0 | 0.0 | 0.00 | 0.02 | 0.02 | 85 | 1010.6 |
| 20260902004538 | 82 | 305 | 0.0 | 0.0 | 0.00 | 0.02 | 0.02 | 84 | 1010.8 |
| 20260902003038 | 82 | 324 | 0.0 | 1.0 | 0.00 | 0.02 | 0.02 | 83 | 1010.9 |
| 20260902001537 | 82 | 328 | 0.0 | 4.0 | 0.00 | 0.02 | 0.02 | 83 | 1011.1 |
| 20260902000038 | 83 | 4 | 2.0 | 9.0 | 0.00 | 0.02 | 0.02 | 83 | 1010.9 |
| 20260901234535 | 83 | 8 | 5.0 | 7.0 | 0.00 | 0.02 | 0.02 | 82 | 1010.9 |
| 20260901233033 | 83 | 6 | 4.0 | 7.0 | 0.00 | 0.02 | 0.02 | 83 | 1011.0 |
| 20260901231533 | 84 | 8 | 1.0 | 5.0 | 0.00 | 0.02 | 0.02 | 84 | 1011.1 |
| 20260901230039 | 84 | 13 | 4.0 | 9.0 | 0.00 | 0.02 | 0.02 | 85 | 1011.3 |
| 20260901224536 | 84 | 9 | 0.0 | 4.0 | 0.00 | 0.02 | 0.02 | 83 | 1011.3 |
| 20260901223030 | 84 | 316 | 0.0 | 2.0 | 0.00 | 0.02 | 0.02 | 82 | 1011.1 |
| 20260901221530 | 83 | 302 | 0.0 | 5.0 | 0.01 | 0.02 | 0.02 | 84 | 1011.0 |
| 20260901220039 | 83 | 279 | 0.0 | 3.0 | 0.01 | 0.02 | 0.02 | 85 | 1011.0 |
| 20260901214526 | 83 | 290 | 0.0 | 3.0 | 0.01 | 0.02 | 0.02 | 85 | 1011.3 |
| 20260901213040 | 83 | 331 | 0.0 | 5.0 | 0.01 | 0.02 | 0.02 | 82 | 1011.6 |
| 20260901211525 | 83 | 310 | 0.0 | 4.0 | 0.00 | 0.01 | 0.01 | 83 | 1011.7 |
| 20260901210026 | 83 | 301 | 0.0 | 2.0 | 0.00 | 0.01 | 0.01 | 81 | 1011.7 |
| 20260901204533 | 84 | 300 | 0.0 | 4.0 | 0.00 | 0.02 | 0.01 | 82 | 1011.7 |
| 20260901203033 | 83 | 320 | 0.0 | 5.0 | 0.00 | 0.02 | 0.01 | 81 | 1011.7 |
| 20260901201521 | 83 | 326 | 1.0 | 7.0 | 0.01 | 0.02 | 0.01 | 81 | 1011.7 |
| 20260901200018 | 83 | 333 | 2.0 | 5.0 | 0.01 | 0.02 | 0.01 | 82 | 1012.0 |
| 20260901194515 | 83 | 329 | 2.0 | 5.0 | 0.01 | 0.47 | 0.01 | 81 | 1012.4 |
| 20260901193014 | 83 | 341 | 1.0 | 4.0 | 0.01 | 0.47 | 0.01 | 81 | 1012.6 |
| 20260901191512 | 82 | 4 | 2.0 | 6.0 | 0.00 | 0.46 | 0.00 | 83 | 1012.7 |
| 20260901190011 | 83 | 4 | 4.0 | 7.0 | 0.00 | 0.46 | 0.00 | 83 | 1012.8 |
| 20260901184526 | 83 | 358 | 3.0 | 6.0 | 0.00 | 0.46 | 0.00 | 82 | 1013.1 |
| 20260901183012 | 83 | 325 | 3.0 | 8.0 | 0.00 | 0.46 | 0.00 | 83 | 1013.2 |
| 20260901181510 | 83 | 13 | 3.0 | 8.0 | 0.00 | 0.46 | 0.00 | 84 | 1013.2 |
| 20260901180009 | 83 | 18 | 5.0 | 9.0 | 0.00 | 0.46 | 0.00 | 85 | 1013.1 |
| 20260901174528 | 83 | 338 | 4.0 | 10.0 | 0.00 | 0.46 | 0.00 | 83 | 1013.2 |
| 20260901173007 | 83 | 24 | 7.0 | 10.0 | 0.00 | 0.46 | 0.00 | 81 | 1013.5 |
| 20260901171508 | 83 | 16 | 4.0 | 8.0 | 0.00 | 0.46 | 0.00 | 83 | 1014.1 |
| 20260901170007 | 84 | 12 | 5.0 | 9.0 | 0.00 | 0.46 | 0.00 | 81 | 1014.3 |
| 20260901164506 | 85 | 349 | 5.0 | 8.0 | 0.00 | 0.46 | 0.00 | 79 | 1014.3 |
| 20260901163005 | 85 | 13 | 3.0 | 9.0 | 0.00 | 0.46 | 0.00 | 81 | 1014.5 |